FW2402 Weather Reports


time (UTC)temp
F
wind
direction
speed
knots
gust
knots
rain 1hr
in
rain 24hr
in
rain mn
in
humidity
%
barometer
mb
20200531082016 70 0.0 0.9 0.00 0.00 0.00 93 1016.4
20200531081515 71 0.0 0.0 0.00 0.00 0.00 93 1016.4
20200531081015 71 0.0 0.9 0.00 0.00 0.00 93 1016.4
20200531080515 71 0.0 0.0 0.00 0.00 0.00 93 1016.2
20200531080015 71 0.0 0.9 0.00 0.00 0.00 93 1016.3
20200531075515 71 0.0 0.9 0.00 0.00 0.00 93 1016.4
20200531075015 71 0.0 0.0 0.00 0.00 0.00 93 1016.3
20200531074516 71 0.0 0.9 0.00 0.00 0.00 93 1016.2
20200531074015 71 248 0.9 0.9 0.00 0.00 0.00 93 1016.2
20200531073516 71 0.0 0.9 0.00 0.00 0.00 93 1016.1
20200531073016 71 0.0 0.9 0.00 0.00 0.00 93 1016.2
20200531072516 71 0.0 0.9 0.00 0.00 0.00 93 1016.1
20200531072016 71 0.0 0.9 0.00 0.00 0.00 93 1016.1
20200531071516 71 248 0.9 1.7 0.00 0.00 0.00 93 1016.1
20200531071016 71 248 0.9 0.9 0.00 0.00 0.00 92 1016.2
20200531070515 71 0.0 0.9 0.00 0.00 0.00 92 1016.3
20200531070016 71 0.0 0.9 0.00 0.00 0.00 92 1016.4
20200531065515 71 0.0 0.9 0.00 0.00 0.00 92 1016.5
20200531065015 72 0.0 1.7 0.00 0.00 0.00 92 1016.5
20200531064515 71 248 0.9 1.7 0.00 0.00 0.00 92 1016.7
20200531064015 71 248 0.9 1.7 0.00 0.01 0.00 92 1016.8
20200531063516 71 0.0 0.9 0.00 0.01 0.00 91 1016.8
20200531063015 72 0.0 1.7 0.00 0.01 0.00 91 1016.9
20200531062515 72 248 0.9 1.7 0.00 0.01 0.00 91 1017.0
20200531062015 72 248 1.7 2.6 0.00 0.01 0.00 91 1017.1
20200531061515 72 248 1.7 2.6 0.00 0.01 0.00 91 1017.2
20200531061015 72 248 0.9 1.7 0.00 0.01 0.00 91 1017.3
20200531060515 72 248 0.9 1.7 0.00 0.01 0.00 91 1017.3
20200531060015 72 248 0.9 1.7 0.00 0.01 0.00 91 1017.3
20200531055516 72 248 0.9 1.7 0.00 0.01 0.00 90 1017.3
20200531055016 72 0.0 0.9 0.00 0.01 0.00 90 1017.3
20200531054515 72 248 0.9 1.7 0.00 0.01 0.00 90 1017.5
20200531054015 72 248 1.7 2.6 0.00 0.01 0.00 90 1017.6
20200531053516 72 225 0.9 1.7 0.00 0.01 0.00 90 1017.6
20200531053021 72 0.0 1.7 0.00 0.01 0.00 90 1017.8
20200531052518 72 225 0.9 1.7 0.00 0.01 0.00 90 1017.8
20200531052015 73 225 0.9 1.7 0.00 0.01 0.00 90 1017.8
20200531051515 73 0.0 1.7 0.00 0.01 0.00 90 1017.8
20200531051016 73 0.0 1.7 0.00 0.01 0.00 90 1017.8
20200531050515 73 270 1.7 2.6 0.00 0.01 0.00 90 1017.8
20200531050016 73 203 0.9 1.7 0.00 0.01 0.00 90 1017.8
20200531045515 73 180 0.9 1.7 0.00 0.01 0.00 90 1018.1
20200531045016 73 270 0.9 1.7 0.00 0.01 0.00 90 1018.0
20200531044515 73 180 0.9 2.6 0.00 0.01 0.00 90 1018.0
20200531044020 73 158 1.7 3.5 0.00 0.01 0.00 90 1018.2
20200531043515 73 180 0.9 3.5 0.00 0.01 0.00 90 1018.1
20200531043015 73 248 0.9 3.5 0.00 0.01 0.00 90 1018.1
20200531042515 73 203 0.9 2.6 0.00 0.01 0.00 90 1018.0
20200531042015 73 248 0.9 3.5 0.00 0.01 0.00 90 1018.0
20200531041515 74 270 0.9 1.7 0.00 0.01 0.00 89 1017.9
20200531041016 74 0.0 1.7 0.00 0.01 0.00 89 1017.8
20200531040515 74 248 0.9 2.6 0.00 0.01 0.00 88 1017.7
20200531040015 74 248 1.7 2.6 0.00 0.01 0.01 88 1017.7
20200531035516 74 248 0.9 1.7 0.00 0.01 0.01 88 1017.8
20200531035021 74 0.0 0.9 0.00 0.01 0.01 87 1017.9
20200531034515 74 0.0 1.7 0.00 0.01 0.01 87 1017.9
20200531034015 74 270 0.9 2.6 0.00 0.01 0.01 87 1017.9
20200531033516 74 225 0.9 3.5 0.00 0.01 0.01 86 1018.1
20200531033015 75 225 0.9 2.6 0.00 0.01 0.01 86 1018.0
20200531032515 75 225 0.9 4.3 0.00 0.01 0.01 86 1018.0
20200531032015 75 203 0.9 3.5 0.00 0.01 0.01 86 1018.1
20200531031516 75 203 0.9 2.6 0.00 0.01 0.01 85 1018.2
20200531031016 75 203 1.7 5.2 0.00 0.01 0.01 85 1018.1
20200531030516 75 158 0.9 1.7 0.00 0.01 0.01 85 1018.2
20200531030015 75 158 1.7 4.3 0.00 0.01 0.01 85 1018.1
20200531025515 76 135 2.6 7.8 0.00 0.01 0.01 84 1017.9
20200531025015 76 158 2.6 6.1 0.00 0.01 0.01 84 1017.8
20200531024516 76 158 3.5 7.0 0.00 0.01 0.01 83 1017.8
20200531024015 76 158 4.3 9.6 0.00 0.01 0.01 84 1017.8
20200531023515 76 135 3.5 7.8 0.00 0.01 0.01 85 1017.7
20200531023015 76 135 4.3 7.8 0.00 0.01 0.01 85 1017.8
20200531022516 77 113 5.2 7.0 0.00 0.01 0.01 85 1017.8
20200531022015 77 113 2.6 5.2 0.00 0.01 0.01 85 1017.8
20200531021516 77 135 3.5 6.1 0.00 0.01 0.01 85 1017.7
20200531021015 77 135 2.6 6.1 0.00 0.01 0.01 85 1017.7
20200531020515 77 158 2.6 4.3 0.00 0.01 0.01 84 1017.7
20200531020016 77 158 2.6 7.0 0.00 0.01 0.01 84 1017.7
20200531015515 78 135 1.7 5.2 0.00 0.01 0.01 84 1017.8
20200531015015 78 158 2.6 5.2 0.00 0.01 0.01 83 1017.6
20200531014515 78 113 2.6 6.1 0.00 0.01 0.01 83 1017.6
20200531014015 78 113 2.6 7.0 0.00 0.01 0.01 83 1017.5
20200531013516 78 113 4.3 7.0 0.00 0.01 0.01 82 1017.5
20200531013015 78 113 7.0 13.0 0.00 0.01 0.01 81 1017.5
20200531012515 79 113 6.1 9.6 0.00 0.01 0.01 81 1017.5
20200531012015 79 113 7.8 13.9 0.00 0.01 0.01 81 1017.4
20200531011515 80 113 7.0 11.3 0.00 0.01 0.01 79 1017.3
20200531011015 80 113 6.1 10.4 0.00 0.01 0.01 77 1017.3
20200531010515 81 113 6.1 8.7 0.00 0.01 0.01 77 1017.3
20200531010015 81 90 6.1 10.4 0.00 0.01 0.01 77 1017.2
20200531005515 81 90 4.3 8.7 0.00 0.01 0.01 77 1017.1
20200531005015 81 90 2.6 5.2 0.00 0.01 0.01 78 1017.0
20200531004515 81 90 2.6 3.5 0.00 0.01 0.01 77 1016.9
20200531004015 81 68 2.6 3.5 0.00 0.01 0.01 76 1016.7
20200531003515 82 68 2.6 4.3 0.00 0.01 0.01 76 1016.5
20200531003015 82 45 1.7 2.6 0.00 0.01 0.01 75 1016.5
20200531002515 82 68 1.7 3.5 0.00 0.01 0.01 75 1016.5
20200531002015 83 0.0 1.7 0.00 0.02 0.01 74 1016.4
20200531001515 83 315 0.9 2.6 0.00 0.02 0.01 73 1016.1
20200531001015 83 315 0.9 2.6 0.00 0.02 0.01 72 1015.9
20200531000515 83 315 0.9 2.6 0.00 0.02 0.01 71 1015.8
20200531000015 84 315 0.9 2.6 0.00 0.03 0.01 71 1015.8
20200530235515 84 0.0 0.9 0.00 0.03 0.01 71 1015.6
20200530235015 85 315 1.7 3.5 0.00 0.04 0.01 69 1015.6
20200530234515 85 315 0.9 2.6 0.00 0.05 0.01 69 1015.5
20200530234015 85 0 0.9 2.6 0.00 0.06 0.01 68 1015.5
20200530233515 85 293 2.6 7.0 0.00 0.07 0.01 68 1015.4
20200530233015 85 315 0.9 4.3 0.00 0.08 0.01 69 1015.4
20200530232515 85 293 3.5 7.8 0.00 0.10 0.01 68 1015.4
20200530232015 85 315 5.2 8.7 0.00 0.11 0.01 67 1015.4
20200530231515 86 315 6.1 11.3 0.00 0.12 0.01 67 1015.2
20200530231015 86 293 6.1 11.3 0.00 0.13 0.01 67 1015.2
20200530230515 87 293 5.2 10.4 0.00 0.13 0.01 65 1015.1
20200530230015 87 315 2.6 7.0 0.00 0.14 0.01 65 1015.2
20200530225515 87 293 4.3 8.7 0.00 0.14 0.01 65 1015.1
20200530225015 87 293 6.1 11.3 0.00 0.14 0.01 64 1015.0
20200530224515 87 293 4.3 8.7 0.00 0.14 0.01 65 1014.9
20200530224017 87 293 6.1 7.8 0.00 0.14 0.01 64 1015.1
20200530223517 88 293 6.1 11.3 0.00 0.14 0.01 63 1015.0
20200530223017 88 293 5.2 12.2 0.00 0.15 0.01 63 1014.8
20200530222517 88 293 7.8 12.2 0.00 0.15 0.01 62 1014.7
20200530222017 89 293 7.0 11.3 0.00 0.15 0.01 63 1014.7
20200530221517 89 293 4.3 10.4 0.00 0.16 0.01 65 1014.8
20200530221017 88 293 3.5 7.8 0.00 0.22 0.01 64 1014.8
20200530220517 88 293 2.6 4.3 0.00 0.33 0.01 65 1014.8
20200530220017 88 293 4.3 7.8 0.00 0.43 0.01 64 1014.7
20200530215517 89 315 4.3 8.7 0.00 0.44 0.01 63 1014.7
20200530215017 89 293 4.3 7.0 0.00 0.44 0.01 64 1014.7
20200530214517 89 293 3.5 7.0 0.00 0.44 0.01 63 1014.8
20200530214017 88 315 1.7 6.1 0.00 0.44 0.01 65 1014.9
20200530213517 88 315 1.7 3.5 0.00 0.44 0.01 65 1015.0
20200530213017 88 293 3.5 10.4 0.00 0.44 0.01 66 1015.1
20200530212517 89 315 3.5 8.7 0.00 0.44 0.01 63 1015.2
20200530212017 89 293 1.7 6.1 0.00 0.44 0.01 65 1015.2
20200530211522 88 315 1.7 4.3 0.00 0.44 0.01 66 1015.3
20200530211017 88 293 2.6 5.2 0.00 0.44 0.01 65 1015.3
20200530210522 88 315 1.7 5.2 0.00 0.44 0.01 68 1015.4
20200530210017 88 315 1.7 3.5 0.00 0.44 0.01 66 1015.4
20200530205520 88 315 1.7 3.5 0.00 0.44 0.01 65 1015.4
20200530205017 88 315 0.9 2.6 0.00 0.44 0.01 67 1015.5
20200530204517 88 293 1.7 3.5 0.00 0.44 0.01 67 1015.6
20200530204017 89 293 1.7 3.5 0.00 0.44 0.01 67 1015.6
20200530203517 89 315 0.9 3.5 0.00 0.44 0.01 65 1015.7
20200530203017 89 315 1.7 3.5 0.00 0.44 0.01 64 1015.6
20200530202516 90 293 3.5 7.0 0.00 0.44 0.01 61 1015.7
20200530202017 90 293 1.7 7.8 0.00 0.44 0.01 65 1015.7
20200530201516 89 293 3.5 7.8 0.00 0.44 0.01 64 1015.8
20200530201017 91 68 1.7 4.3 0.00 0.44 0.01 64 1015.8
20200530200516 90 270 0.9 3.5 0.00 0.44 0.01 65 1015.8
20200530200018 91 270 2.6 7.0 0.00 0.44 0.01 61 1015.9
20200530195517 91 248 1.7 6.1 0.00 0.44 0.01 63 1015.9
20200530195016 90 270 2.6 6.1 0.00 0.44 0.01 63 1015.9
20200530194516 90 315 1.7 4.3 0.00 0.44 0.01 63 1015.9
20200530194017 91 68 1.7 3.5 0.00 0.44 0.01 62 1016.0
20200530193516 89 315 0.9 2.6 0.00 0.44 0.01 70 1016.1
20200530193016 89 315 1.7 3.5 0.00 0.44 0.01 65 1016.0
20200530192517 90 90 2.6 5.2 0.00 0.44 0.01 62 1016.1
20200530192018 91 68 1.7 3.5 0.00 0.44 0.01 63 1016.0
20200530191516 90 180 0.9 2.6 0.00 0.44 0.01 65 1016.2
20200530191017 90 270 0.9 3.5 0.00 0.44 0.01 67 1016.2
20200530190516 89 135 0.9 1.7 0.00 0.44 0.01 72 1016.3
20200530190016 89 68 0.9 1.7 0.00 0.44 0.01 67 1016.3
20200530185516 89 68 1.7 3.5 0.00 0.44 0.01 64 1016.3
20200530185016 89 315 1.7 3.5 0.00 0.44 0.01 64 1016.5
20200530184517 90 338 0.9 3.5 0.00 0.44 0.01 67 1016.5
20200530184016 89 293 1.7 3.5 0.00 0.44 0.01 71 1016.6
20200530183522 89 293 2.6 6.1 0.00 0.44 0.01 62 1016.6
20200530183016 89 315 2.6 6.1 0.00 0.44 0.01 63 1016.7
20200530182516 89 113 1.7 4.3 0.00 0.44 0.01 66 1016.8
20200530182017 89 293 2.6 5.2 0.00 0.44 0.01 65 1016.8
20200530181516 89 293 2.6 5.2 0.00 0.44 0.01 65 1017.0
20200530181016 88 270 3.5 7.0 0.00 0.44 0.01 70 1017.0
20200530180517 87 270 1.7 5.2 0.00 0.44 0.01 71 1017.1
20200530180016 86 293 2.6 6.1 0.00 0.44 0.01 72 1017.1
20200530175516 86 293 2.6 4.3 0.00 0.44 0.01 70 1017.2
20200530175017 87 293 2.6 7.0 0.00 0.44 0.01 68 1017.3
20200530174516 88 293 0.9 2.6 0.00 0.44 0.01 69 1017.3
20200530174016 89 45 0.9 2.6 0.00 0.44 0.01 64 1017.3
20200530173517 88 68 0.9 2.6 0.00 0.44 0.01 69 1017.4
20200530173017 87 293 1.7 4.3 0.00 0.44 0.01 71 1017.4
20200530172517 88 293 2.6 6.1 0.00 0.44 0.01 67 1017.4
20200530172016 88 293 2.6 6.1 0.00 0.44 0.01 68 1017.5
20200530171516 87 293 2.6 5.2 0.00 0.44 0.01 69 1017.6
20200530171017 88 270 3.5 7.8 0.00 0.44 0.01 67 1017.6
20200530170516 88 203 0.9 3.5 0.00 0.44 0.01 71 1017.7
20200530170017 87 135 1.7 2.6 0.00 0.44 0.01 70 1017.8
20200530165517 87 203 1.7 3.5 0.00 0.44 0.01 70 1017.8
20200530165016 87 293 2.6 5.2 0.00 0.44 0.01 70 1017.8
20200530164516 86 293 1.7 3.5 0.00 0.44 0.01 68 1017.9
20200530164017 87 248 1.7 6.1 0.00 0.44 0.01 69 1017.9
20200530163516 87 338 0.9 1.7 0.00 0.44 0.01 74 1017.9
20200530163016 86 135 0.9 1.7 0.00 0.44 0.01 74 1018.0
20200530162517 86 270 1.7 3.5 0.00 0.44 0.01 74 1018.0
20200530162021 85 248 1.7 6.1 0.00 0.44 0.01 72 1018.1
20200530161516 85 270 4.3 7.8 0.00 0.44 0.01 73 1018.1
20200530161017 85 315 1.7 5.2 0.00 0.44 0.01 75 1018.1
20200530160517 85 270 2.6 7.0 0.00 0.44 0.01 74 1018.1
20200530160017 84 270 2.6 5.2 0.00 0.44 0.01 72 1018.0
20200530155516 84 270 2.6 7.0 0.00 0.44 0.01 74 1018.2
20200530155016 85 203 1.7 2.6 0.00 0.44 0.01 76 1018.2
20200530154516 85 270 2.6 6.1 0.00 0.44 0.01 77 1018.1
20200530154016 84 293 2.6 6.1 0.00 0.44 0.01 78 1018.2
20200530153522 84 293 4.3 7.8 0.00 0.44 0.01 79 1018.1
20200530153016 84 248 1.7 2.6 0.00 0.44 0.01 78 1018.2
20200530152517 84 270 1.7 6.1 0.00 0.44 0.01 80 1018.2
20200530152016 84 293 4.3 7.0 0.00 0.44 0.01 79 1018.3
20200530151516 84 203 1.7 5.2 0.00 0.44 0.01 80 1018.2
20200530151016 83 270 1.7 5.2 0.00 0.44 0.01 82 1018.2
20200530150516 83 203 1.7 5.2 0.00 0.44 0.01 80 1018.2
20200530150016 82 270 1.7 5.2 0.00 0.44 0.01 82 1018.1
20200530145516 82 270 1.7 6.1 0.00 0.44 0.01 80 1018.1
20200530145017 82 270 2.6 6.1 0.00 0.44 0.01 82 1018.2
20200530144516 82 270 3.5 6.1 0.00 0.44 0.01 84 1018.2
20200530144016 82 293 1.7 3.5 0.00 0.44 0.01 85 1018.1
20200530143516 81 293 4.3 7.0 0.00 0.44 0.01 81 1018.1
20200530143017 81 203 1.7 3.5 0.00 0.44 0.01 84 1018.2
20200530142516 81 270 3.5 6.1 0.00 0.44 0.01 85 1018.2
20200530142016 81 270 4.3 7.0 0.00 0.44 0.01 82 1018.2
20200530141516 81 180 2.6 6.1 0.00 0.44 0.01 84 1018.2
20200530141016 81 225 1.7 4.3 0.00 0.44 0.01 85 1018.3
20200530140516 81 293 3.5 6.1 0.00 0.44 0.01 86 1018.2
20200530140016 81 180 1.7 5.2 0.00 0.44 0.01 84 1018.1
20200530135516 80 180 1.7 3.5 0.00 0.44 0.01 85 1018.2
20200530135016 80 180 1.7 3.5 0.00 0.44 0.01 87 1018.2
20200530134516 80 203 1.7 5.2 0.00 0.44 0.01 88 1018.2
20200530134016 79 203 0.9 2.6 0.00 0.44 0.01 89 1018.2
20200530133516 79 180 0.9 3.5 0.00 0.44 0.01 89 1018.3
20200530133016 79 225 0.9 2.6 0.00 0.44 0.01 89 1018.3
20200530132516 78 180 1.7 3.5 0.00 0.44 0.01 90 1018.4
20200530132017 78 180 1.7 4.3 0.00 0.44 0.01 91 1018.4
20200530131516 77 180 1.7 4.3 0.00 0.44 0.01 92 1018.5
20200530131016 76 180 1.7 4.3 0.00 0.44 0.01 94 1018.6
20200530130516 76 225 0.9 1.7 0.00 0.44 0.01 96 1018.5
20200530130016 76 203 0.9 2.6 0.00 0.44 0.01 96 1018.6
20200530125516 75 203 0.9 1.7 0.00 0.44 0.01 97 1018.5
20200530125017 75 203 0.9 1.7 0.00 0.44 0.01 97 1018.5
20200530124516 75 203 0.9 2.6 0.00 0.44 0.01 97 1018.4
20200530124016 75 203 1.7 2.6 0.00 0.44 0.01 98 1018.5
20200530123516 74 180 0.9 2.6 0.00 0.44 0.01 98 1018.5
20200530123016 74 180 0.9 2.6 0.00 0.44 0.01 98 1018.4
20200530122517 74 180 0.9 2.6 0.00 0.44 0.01 98 1018.3
20200530122016 74 180 0.9 2.6 0.00 0.44 0.01 98 1018.3
20200530121516 73 225 0.9 1.7 0.00 0.44 0.01 98 1018.3
20200530121016 73 180 0.9 2.6 0.00 0.44 0.01 98 1018.4
20200530120516 73 180 0.9 2.6 0.00 0.44 0.01 98 1018.3
20200530120016 73 0.0 1.7 0.00 0.44 0.01 98 1018.2
20200530115516 73 180 0.9 2.6 0.00 0.44 0.01 98 1018.1
20200530115016 72 0.0 1.7 0.00 0.44 0.01 98 1018.1
20200530114516 72 135 0.9 1.7 0.00 0.45 0.01 99 1018.1
20200530114016 71 135 0.9 1.7 0.00 0.45 0.01 98 1017.9
20200530113516 70 135 0.9 0.9 0.00 0.45 0.01 98 1017.9
20200530113016 70 0.0 0.9 0.00 0.45 0.01 98 1018.0
20200530112516 69 0.0 0.0 0.00 0.45 0.01 98 1018.0
20200530112016 69 135 0.9 1.7 0.00 0.45 0.01 98 1018.0
20200530111516 69 0.0 0.9 0.00 0.45 0.01 98 1017.9
20200530111016 69 135 0.9 0.9 0.00 0.45 0.01 98 1017.7
20200530110521 69 135 0.9 0.9 0.00 0.45 0.01 98 1017.7
20200530110016 69 0.0 0.0 0.00 0.45 0.01 97 1017.8
20200530105516 69 0.0 0.0 0.00 0.45 0.01 98 1017.7
20200530105016 69 0.0 0.0 0.00 0.45 0.01 98 1017.6
20200530104516 69 0.0 0.0 0.00 0.45 0.01 98 1017.7
20200530104015 69 0.0 0.0 0.00 0.45 0.01 98 1017.8
20200530103515 69 0.0 0.9 0.00 0.45 0.01 98 1017.7
20200530103016 69 135 0.9 0.9 0.00 0.45 0.01 98 1017.6
20200530102516 69 0.0 0.9 0.00 0.45 0.01 98 1017.5
20200530102016 69 0.0 0.9 0.00 0.45 0.01 98 1017.4
20200530101515 69 135 0.9 0.9 0.00 0.45 0.01 98 1017.5
20200530101016 69 0.0 0.9 0.00 0.45 0.01 98 1017.4
20200530100521 69 0.0 0.0 0.00 0.45 0.01 98 1017.3
20200530100016 69 0.0 0.9 0.00 0.45 0.01 98 1017.1
20200530095515 69 0.0 0.0 0.00 0.45 0.01 97 1017.3
20200530095016 69 0.0 0.0 0.00 0.45 0.01 98 1017.5
20200530094515 69 0.0 0.0 0.00 0.45 0.01 98 1017.4
20200530094015 69 0.0 0.0 0.00 0.45 0.01 98 1017.4
20200530093515 69 0.0 0.9 0.00 0.45 0.01 98 1017.4
20200530093016 70 0.0 0.9 0.00 0.45 0.01 98 1017.4
20200530092515 70 0.0 0.0 0.00 0.45 0.01 98 1017.3
20200530092016 69 0.0 0.9 0.00 0.45 0.01 98 1017.3
20200530091515 69 0.0 0.0 0.00 0.45 0.01 97 1017.3
20200530091016 69 0.0 0.0 0.00 0.45 0.01 97 1017.3
20200530090516 69 0.0 0.0 0.00 0.45 0.01 97 1017.4
20200530090016 69 0.0 0.0 0.00 0.45 0.01 98 1017.4
20200530085516 69 0.0 0.0 0.00 0.45 0.01 97 1017.4
20200530085016 69 0.0 0.0 0.00 0.45 0.01 97 1017.5
20200530084515 69 0.0 0.0 0.00 0.45 0.01 97 1017.5
20200530084016 69 0.0 0.0 0.00 0.45 0.01 97 1017.5
20200530083516 69 0.0 0.0 0.00 0.45 0.01 97 1017.5
20200530083016 70 0.0 0.0 0.00 0.45 0.01 97 1017.6
20200530082515 70 0.0 0.9 0.00 0.45 0.01 98 1017.6